Home   Weather   Asker   Past weeks

Flag for Norway Past Weather in Asker, Norway — Yesterday and Last 2 Weeks

Now
39 °F

Sprinkles. Overcast.


Feels Like: 28 °F
Forecast: 30 / 35 °F
Wind: 24 mph from Southwest

Location: Statfjord B

Current Time: Apr 23, 2017 at 12:07:32 pm

Latest Report: Apr 23, 2017 at 11:20 am


Visibility: N/A

Pressure: 29.95 "Hg

Humidity: 81%

Dew Point: 34 °F

Location of AskerLocation

Past Weather in Asker — Graph

°F

Asker Temperature Yesterday

Maximum temperature yesterday: 43 °F (at 12:20 am)
Minimum temperature yesterday: 37 °F (at 6:20 pm)
Average temperature yesterday: 40 °F

High & Low Weather Summary for the Past Weeks

 TemperatureHumidityPressure
High48 °F (Apr 8, 12:50 pm)100% (Apr 8, 3:20 pm)30.51 "Hg (Apr 8, 3:20 pm)
Low34 °F (Apr 17, 8:50 am)46% (Apr 18, 12:50 pm)29.42 "Hg (Apr 12, 8:50 am)
Average43 °F76%29.92 "Hg
* Reported Apr 8 10:20 am — Apr 23 10:50 am, Asker, Weather by CustomWeather, © 2017

Note: Actual official high and low records may vary slightly from our data, if they occured in-between our weather recording intervals... More about our weather records

Advertising

Asker Weather History for the Previous 24 Hours

Scroll right to see more
 ConditionsComfort  
Time TempWeatherWind HumidityBarometerVisibility
10:50 am
Sun, Apr 23
39 °FPartly sunny.22 mph81%29.98 "HgN/A
10:20 am37 °FSprinkles. Partly sunny.26 mph87%29.98 "HgN/A
9:50 am39 °FOvercast.21 mph75%30.01 "HgN/A
9:20 am39 °FSprinkles. Partly sunny.17 mph70%30.01 "HgN/A
8:50 am37 °FOvercast.10 mph75%30.04 "HgN/A
8:20 am36 °FSprinkles. Partly sunny.15 mph87%30.04 "Hg4 mi
7:50 am39 °FPartly sunny.17 mph70%30.04 "HgN/A
7:20 am39 °FPartly sunny.17 mph81%30.07 "HgN/A
6:50 am37 °FRain. Partly sunny.16 mph87%30.07 "HgN/A
6:20 am39 °FPartly sunny.23 mph70%30.07 "HgN/A
5:50 am39 °FPartly sunny.25 mph61%30.07 "HgN/A
5:20 am39 °FPassing clouds.29 mph61%30.07 "HgN/A
4:50 am39 °FPassing clouds.30 mph52%30.07 "HgN/A
4:20 am39 °FPassing clouds.30 mph56%30.07 "HgN/A
3:50 am39 °FPassing clouds.30 mph52%30.09 "HgN/A
3:20 am39 °FPassing clouds.31 mph48%30.09 "HgN/A
2:50 am39 °FPassing clouds.30 mph48%30.09 "HgN/A
2:20 am39 °FPassing clouds.31 mph52%30.09 "HgN/A
1:50 am37 °FPassing clouds.32 mph52%30.09 "HgN/A
1:20 am36 °FSprinkles. Passing clouds.22 mph87%30.12 "HgN/A
12:50 am36 °FPassing clouds.31 mph81%30.12 "HgN/A
12:20 am37 °FPassing clouds.33 mph81%30.12 "HgN/A
11:50 pm
Sat, Apr 22
37 °FSprinkles. Passing clouds.24 mph75%30.12 "HgN/A
11:20 pm37 °FPassing clouds.30 mph75%30.12 "HgN/A
10:50 pm37 °FPassing clouds.26 mph70%30.12 "HgN/A
10:20 pm37 °FSprinkles. Passing clouds.24 mph65%30.12 "HgN/A
9:50 pm37 °FSprinkles. Passing clouds.31 mph70%30.12 "HgN/A
9:20 pm37 °FSprinkles. Passing clouds.25 mph75%30.12 "HgN/A
8:20 pm39 °FPartly sunny.31 mph56%30.12 "HgN/A
7:50 pm37 °FSprinkles. Broken clouds.25 mph75%30.12 "HgN/A
7:20 pm37 °FSprinkles. Partly sunny.28 mph75%30.12 "HgN/A
6:50 pm37 °FPartly sunny.30 mph75%30.12 "HgN/A
6:20 pm37 °FSprinkles. Partly sunny.29 mph70%30.12 "HgN/A
5:50 pm39 °FPartly sunny.30 mph61%30.12 "HgN/A
5:20 pm39 °FPartly sunny.32 mph52%30.12 "HgN/A
4:50 pm39 °FPartly sunny.30 mph56%30.12 "HgN/A
4:20 pm39 °FPartly sunny.31 mph61%30.12 "HgN/A
3:50 pm39 °FPartly sunny.32 mph65%30.12 "HgN/A
3:20 pm41 °FPartly sunny.31 mph66%30.12 "HgN/A
2:50 pm41 °FPartly sunny.33 mph66%30.12 "HgN/A
2:20 pm39 °FOvercast.35 mph75%30.12 "HgN/A
1:50 pm39 °FSprinkles. Partly sunny.35 mph87%30.12 "HgN/A
1:20 pm39 °FLight rain. Overcast.32 mph87%30.12 "HgN/A
12:50 pm41 °FPartly sunny.31 mph81%30.09 "HgN/A
12:20 pm43 °FBroken clouds.30 mph76%30.09 "HgN/A
Weather by CustomWeather, © 2017

See weather overviewHow to use our weather pages